Regional Weather Roundup
Issued by NWS

Home | Current Version | Previous Version | Graphics & Text | Print | Product List | Glossary On
Versions: 1 2 3 4 5 6 7 8 9 10 11 12 13 14 15 16 17 18 19 20 21 22 23 24 25 26 27 28 29 30 31 32 33 34 35 36 37 38 39 40 41 42 43 44 45 46 47 48 49 50
000
ASUS43 KOAX 111110
RWRNE

WEATHER ROUNDUP FOR NEBRASKA
NATIONAL WEATHER SERVICE OMAHA NE
500 AM CST MON DEC 11 2017

NOTES: SATELLITE DATA IS BEING USED TO AUGMENT CLOUD COVER ABOVE
       12000 FEET.
       "FAIR" INDICATES FEW OR NO CLOUDS BELOW 12,000 FEET WITH NO
       SIGNIFICANT WEATHER AND/OR OBSTRUCTIONS TO VISIBILITY.


NEZ001>004-019>022-054>056-111200-
NEBRASKA PANHANDLE

CITY           SKY/WX    TMP DP  RH WIND       PRES   REMARKS
SCOTTSBLUFF    CLOUDY    27  12  53 NW9       30.27S WCI  18
ALLIANCE       CLOUDY    38  14  37 W13       30.21S WCI  30
CHADRON        CLOUDY    39  16  39 W7        30.23R WCI  34
GORDON         FAIR      40  19  42 W13       30.17S WCI  32
KIMBALL        CLOUDY    38   5  25 NW16      30.28S WCI  28
SIDNEY         CLOUDY    37   7  28 W14       30.25S WCI  28
$$

NEZ057>060-069>072-079>082-111200-
SOUTHWEST NEBRASKA

CITY           SKY/WX    TMP DP  RH WIND       PRES   REMARKS
NORTH PLATTE   CLOUDY    27  17  66 NW8       30.17R WCI  19
IMPERIAL       CLEAR     38   8  29 W15       30.20F WCI  29
LEXINGTON      CLOUDY    34  15  46 NW17      30.13R WCI  24
MCCOOK         CLEAR     40  10  29 W16       30.16F WCI  31
OGALLALA       CLOUDY    34  11  38 W10       30.21R WCI  26
$$

NEZ005>010-023>029-035>040-094-111200-
NORTH CENTRAL NEBRASKA

CITY           SKY/WX    TMP DP  RH WIND       PRES   REMARKS
VALENTINE      CLOUDY    44  18  35 W18G24    30.07F
AINSWORTH      CLOUDY    45  18  34 W14G20    30.06F
BROKEN BOW     CLOUDY    46  15  28 NW22      30.08F
O`NEILL        CLOUDY    46  20  34 NW23G31   29.98F
ORD            CLOUDY    47  17  30 NW18G28   30.03S
THEDFORD       CLOUDY    47  18  31 NW15      30.13F
$$

NEZ041-046>049-061>064-073>077-083>087-111200-
SOUTH CENTRAL NEBRASKA

CITY           SKY/WX    TMP DP  RH WIND       PRES   REMARKS
GRAND ISLAND   CLOUDY    38  15  39 W17       30.05S WCI  28
AURORA         CLEAR     41  14  33 W20       30.02S
HASTINGS       CLEAR     36  13  38 W16       30.07R WCI  26
HEBRON         CLOUDY    36  14  41 W6        30.05S WCI  31
HOLDREGE       CLEAR     35  14  42 W8        30.11R WCI  29
KEARNEY        CLEAR     37  12  35 NW16      30.09R WCI  28
YORK           CLEAR     37  16  41 W15       30.01S WCI  28
$$

NEZ011>018-030>034-042>045-111200-
NORTHEAST NEBRASKA

CITY           SKY/WX    TMP DP  RH WIND       PRES   REMARKS
NORFOLK        CLOUDY    42  18  37 W16       29.92F
ALBION         CLOUDY    48  17  29 NW15      29.98S
BLAIR          PTCLDY    38  20  47 W7        29.91F WCI  33
COLUMBUS       CLOUDY    32  18  56 W8        29.98S WCI  25
FREMONT        CLOUDY    37  18  47 W13       29.92F WCI  29
TEKAMAH        CLOUDY    36  17  46 SW5       29.90F WCI  32
WAYNE          CLOUDY    41  14  33 W14G20    29.90F
$$

NEZ050>053-065>068-078-088>093-111200-
SOUTHEAST NEBRASKA

CITY           SKY/WX    TMP DP  RH WIND       PRES   REMARKS
LINCOLN        CLOUDY    40  16  37 NW6       29.99S
OMAHA EPPLEY   PTCLDY    38  19  46 NE8       29.92F WCI  32
BEATRICE       CLOUDY    33  17  52 W10       30.00S WCI  25
FALLS CITY     CLOUDY    37  17  44 W9        29.95F WCI  30
NEBRASKA CITY  CLOUDY    37  19  48 W15       29.94S WCI  28
PLATTSMOUTH    CLOUDY    40  19  41 W12       29.93F WCI  33
$$

NEZ044-045-051>053-067-111200-
OMAHA AREA

CITY           SKY/WX    TMP DP  RH WIND       PRES   REMARKS
OMAHA EPPLEY   PTCLDY    38  19  46 NE8       29.92F WCI  32
BLAIR          PTCLDY    38  20  47 W7        29.91F WCI  33
FREMONT        CLOUDY    37  18  47 W13       29.92F WCI  29
MILLARD        CLOUDY    41  20  43 NW5       29.93F
OFFUTT AFB     CLOUDY    36  19  49 W8        29.91F WCI  29
PLATTSMOUTH    CLOUDY    40  19  41 W12       29.93F WCI  33
WAHOO          FAIR      41  16  36 W17       29.93F
$$




USA.gov is the U.S. government's official web portal to all federal, state and local government web resources and services.